Showing default

STPSAT-6, 49817

Orbit data source: Space-Track

STPSAT-6, 49817 is a payload satellite owned by USAF STP (US) in GEO that was launched on Tue, 07 Dec 2021 UTC via an ATLAS V 551 launch vehicle from the Air Force Eastern Test Range (AFETR). Payload-class satellites include a variety of spacecraft equipped with specific instruments for various scientific and technological missions. These include communications satellites like Starlink; space stations such as the ISS; scientific satellites like the Hubble; Earth observation satellites from companies like Planet Labs, Umbra, and HawkEye 360; GPS; miniature CubeSats for education and research; and military/defense satellites.

Loading next visibility...
Identifier
49817, 2021-118A
Orbit
GEO
Country
Flag of USUS
Related business
Manufacturer
NGAS
Mission
Operational Defense Technology
Bus & Motor
A-500, Unknown motor
Mass
~1,000 kg wet, ~1,000 kg dry
Launch date (UTC)
2021-12-07 (4 years ago)
Launch vehicle
ATLAS V 551
Launch site
Air Force Eastern Test Range (AFETR)
Object type
Payload
Rocket body
Debris
Shape & HBR
Box + 1 Pan, 1.0 m
Radar Cross Section
2.500 m², Large (>1 m²)

Expand to show TLE details & history
Last TLE update: 17 hours ago

TLE from 17 hours ago
0 STPSAT-6
1 49817U 21118A   25348.89366390 -.00000026  00000-0  00000-0 0  9997
2 49817   0.0239  61.7068 0002769 231.2416   0.8677  1.00274814 14725
Epoch: 2025-12-14T21:26Z
TLE epoch observation values (Epoch: 2025-12-14T21:26:52.560Z)
Latitude
-0.02458°
Longitude
-111.71258°
Altitude
35,773.551 km
Speed
3.076 km/s
True Right ascension
19h 35m 13s
True Declination
0° 01' 28"
Sunlit
Object was in daylight at epoch
Visualization orbit readout
Latitude
Unknown
Longitude
Unknown
Altitude
Unknown
Speed
Unknown
Apparent Right ascension
Unknown
Apparent Declination
Unknown
Sunlit
N/A
Visualization observer readout
Local Sidereal Time
13:24:43
Azimuth
Unknown
Elevation
Unknown
Doppler factor
Unknown
Orbital elements
Apogee altitude
35,798.492 km
Perigee altitude
35,775.141 km
Semi-major axis
42,164.953 km
Eccentricity
0.00028
Inclination
0.0239°
RAAN
61.7068°
Arg. of periapsis
231.2416°
True anomaly
0.86818°
Mean anomaly
0.8677°
Eccentric anomaly
0.86794°
Mean motion
0.25068 °/min
Orbital period
1,436.11 mins
BSTAR
0
Loading maneuver chart data...
Computing Atmospheric mass density...
Loading historical data...
Loading historical data...
Loading historical data...
Loading historical data...
Loading historical data...
Loading historical data...
Loading historical data...
Other satellites on launch #118 in the year 2021 (2021-12-07 UTC)

Documentation

Showing up to 5 results
|